Погода в Устье

Россия / Ненецкий автономный округ     67°34′03″N   52°35′29″E
темп.,
°C
ветер,
м/с
пор.,
м/с
влажн.,
%
обл.,
%
осадки,
мм/ч
давл.,
гПа
погр.,
м
15 мая, сб
сб1500:00+2св6983100 0.1 1020437
03:000св6997100 1.0 1019369
06:00+1всв6889100 1.1 1019447
09:00+4всв6772100 1.1 1019779
12:00+6всв565697 0.0 10191027
15:00+6в4554100 0.1 10191108
18:00+6в454676 0.0 1019992
21:00+4всв465979 0.0 1018149
16 мая, вс
вс1600:00+3в5862100 0.0 1018286
03:00+2всв5866100 0.2 1017281
06:00+2всв4767100 0.1 1017308
09:00+2всв5865100 0.1 1016381
12:00+3в5762100 0.0 1016471
15:00+4в5960100 0.0 1015526
18:00+5в4957100 0.0 1014412
21:00+4св4958100 0.0 1013247
17 мая, пн
пн1700:00+3всв61157100 0.0 1013317
03:00+2св61063100 0.0 1014319
06:00+2св61059100 0.0 1014353
09:00+6всв6842100 0.0 1015607
12:00+8св6728100 0.0 1016868
15:00+9св662546 0.0 10171032
18:00+8св66328 0.0 1018892
21:00+3ссв585934 0.0 1020266
18 мая, вт
вт1800:00+1св366915 0.0 1021148
03:00+1св247058 0.0 1022108
06:00+4в225229 0.0 1023315
09:00+7вюв213888 0.0 1024655
12:00+10ююв2232100 0.0 1024801
15:00+12ююв223226 0.0 1024940
18:00+13юв3435100 0.0 1023785
21:00+10юв5946100 0.0 1023177
19 мая, ср
ср1900:00+9ююв51151100 0.0 1022223
03:00+9ююв51152100 0.0 1021221
06:00+12ю71449100 0.0 1018404
09:00+16ю81144100 0.0 1015546
12:00+21ююз9114249 0.0 10121043
15:00+25юз9123987 0.0 10101538
18:00+25юз813418 0.0 1008666
21:00+22юз6145298 0.0 1007237